Time,TemperatureF,DewpointF,PressureIn,WindDirection,WindDirectionDegrees,WindSpeedMPH,WindSpeedGustMPH,Humidity,HourlyPrecipIn,Conditions,Clouds,dailyrainin,SolarRadiationWatts/m^2,SoftwareType,DateUTC
2014-09-22 00:00:00,65.6,58.9,29.99,WNW,284,8.1,8.1,79,0.00,OVC,,0.00,0.0,WeatherDisplay:10.37,2014-09-22 07:00:00,
2014-09-22 00:05:00,65.6,59.3,29.99,WNW,283,5.8,5.8,80,0.00,OVC,,0.00,0.0,WeatherDisplay:10.37,2014-09-22 07:05:00,
2014-09-22 00:10:00,65.6,59.3,29.99,WNW,283,5.8,5.8,80,0.00,OVC,,0.00,0.0,WeatherDisplay:10.37,2014-09-22 07:10:00,
2014-09-22 00:15:00,65.5,59.2,30.00,West,279,7.0,7.0,80,0.00,OVC,,0.00,0.0,WeatherDisplay:10.37,2014-09-22 07:15:00,
2014-09-22 00:20:00,65.5,59.2,30.00,West,281,6.9,6.9,80,0.00,OVC,,0.00,0.0,WeatherDisplay:10.37,2014-09-22 07:20:00,
2014-09-22 00:25:00,65.5,60.2,30.00,West,281,5.8,5.8,83,0.00,OVC,,0.00,0.0,WeatherDisplay:10.37,2014-09-22 07:25:00,
2014-09-22 00:30:00,65.5,59.2,29.99,West,281,4.6,4.6,80,0.00,OVC,,0.00,0.0,WeatherDisplay:10.37,2014-09-22 07:30:00,
2014-09-22 00:35:00,65.5,59.2,29.99,West,281,2.3,2.3,80,0.00,OVC,,0.00,0.0,WeatherDisplay:10.37,2014-09-22 07:35:00,
2014-09-22 00:40:00,65.5,59.2,29.99,West,281,4.6,4.6,80,0.00,OVC,,0.00,0.0,WeatherDisplay:10.37,2014-09-22 07:40:00,
2014-09-22 00:45:00,65.3,59.0,29.99,West,281,0.0,0.0,80,0.00,OVC,,0.00,0.0,WeatherDisplay:10.37,2014-09-22 07:45:00,
2014-09-22 00:50:00,65.3,59.0,29.99,West,281,3.5,3.5,80,0.00,OVC,,0.00,0.0,WeatherDisplay:10.37,2014-09-22 07:50:00,
2014-09-22 00:55:00,65.3,59.0,29.99,West,281,3.5,3.5,80,0.00,OVC,,0.00,0.0,WeatherDisplay:10.37,2014-09-22 07:55:00,
2014-09-22 01:00:00,65.5,59.2,29.99,West,281,0.0,0.4,80,0.00,OVC,,0.00,0.0,WeatherDisplay:10.37,2014-09-22 08:00:00,
2014-09-22 01:05:00,65.5,59.2,29.99,West,281,3.5,3.5,80,0.00,OVC,,0.00,0.0,WeatherDisplay:10.37,2014-09-22 08:05:00,
2014-09-22 01:10:00,65.3,59.0,29.99,West,281,0.0,0.0,80,0.00,OVC,,0.00,0.0,WeatherDisplay:10.37,2014-09-22 08:10:00,
2014-09-22 01:15:00,65.5,59.2,29.99,West,281,0.0,0.0,80,0.00,OVC,,0.00,0.0,WeatherDisplay:10.37,2014-09-22 08:15:00,
2014-09-22 01:20:00,65.5,59.2,29.99,West,281,0.0,0.0,80,0.00,OVC,,0.00,0.0,WeatherDisplay:10.37,2014-09-22 08:20:00,
2014-09-22 01:22:00,65.5,59.2,29.99,West,281,3.5,3.5,80,0.00,OVC,,0.00,0.0,WeatherDisplay:10.37,2014-09-22 08:22:00,
2014-09-22 01:27:00,65.3,59.0,29.99,West,281,0.0,0.3,80,0.00,OVC,,0.00,0.0,WeatherDisplay:10.37,2014-09-22 08:27:00,
2014-09-22 01:31:00,65.3,59.0,29.99,West,281,0.0,0.0,80,0.00,OVC,,0.00,0.0,WeatherDisplay:10.37,2014-09-22 08:31:00,
2014-09-22 01:36:00,65.3,59.0,29.99,West,281,0.0,0.3,80,0.00,OVC,,0.00,0.0,WeatherDisplay:10.37,2014-09-22 08:36:00,
2014-09-22 01:40:00,65.3,59.0,29.99,West,281,0.0,0.0,80,0.00,OVC,,0.00,0.0,WeatherDisplay:10.37,2014-09-22 08:40:00,
2014-09-22 01:45:00,65.3,59.0,30.00,West,281,0.0,0.0,80,0.00,OVC,,0.00,0.0,WeatherDisplay:10.37,2014-09-22 08:45:00,
2014-09-22 01:50:00,65.3,59.0,30.00,West,280,3.5,3.5,80,0.00,OVC,,0.00,0.0,WeatherDisplay:10.37,2014-09-22 08:50:00,
2014-09-22 01:55:00,65.2,58.9,30.00,West,281,0.0,0.0,80,0.00,OVC,,0.00,0.0,WeatherDisplay:10.37,2014-09-22 08:55:00,
2014-09-22 02:00:00,65.2,58.9,29.99,West,281,5.0,5.0,80,0.00,OVC,,0.00,0.0,WeatherDisplay:10.37,2014-09-22 09:00:00,
2014-09-22 02:05:00,65.2,58.9,29.99,West,281,3.5,3.5,80,0.00,OVC,,0.00,0.0,WeatherDisplay:10.37,2014-09-22 09:05:00,
2014-09-22 02:10:00,65.2,58.5,29.99,West,281,0.0,0.0,79,0.00,OVC,,0.00,0.0,WeatherDisplay:10.37,2014-09-22 09:10:00,
2014-09-22 02:15:00,65.3,59.0,29.99,West,281,0.0,0.0,80,0.00,OVC,,0.00,0.0,WeatherDisplay:10.37,2014-09-22 09:15:00,
2014-09-22 02:20:00,65.3,59.0,29.99,West,281,1.2,0.0,80,0.00,OVC,,0.00,0.0,WeatherDisplay:10.37,2014-09-22 09:20:00,
2014-09-22 02:25:00,65.3,59.0,29.99,West,281,0.0,0.0,80,0.00,OVC,,0.00,0.0,WeatherDisplay:10.37,2014-09-22 09:25:00,
2014-09-22 02:30:00,65.2,58.9,29.99,West,281,2.3,2.3,80,0.00,OVC,,0.00,0.0,WeatherDisplay:10.37,2014-09-22 09:30:00,
2014-09-22 02:35:00,65.2,58.9,29.99,West,281,0.0,0.0,80,0.00,OVC,,0.00,0.0,WeatherDisplay:10.37,2014-09-22 09:35:00,
2014-09-22 02:40:00,65.0,58.7,29.99,West,281,4.6,4.6,80,0.00,OVC,,0.00,0.0,WeatherDisplay:10.37,2014-09-22 09:40:00,
2014-09-22 02:45:00,65.0,58.7,29.99,West,281,3.0,3.0,80,0.00,OVC,,0.00,0.0,WeatherDisplay:10.37,2014-09-22 09:45:00,
2014-09-22 02:50:00,64.8,58.5,29.99,West,281,1.2,0.0,80,0.00,OVC,,0.00,0.0,WeatherDisplay:10.37,2014-09-22 09:50:00,
2014-09-22 02:55:00,64.8,58.5,29.99,West,281,3.5,3.5,80,0.00,OVC,,0.00,0.0,WeatherDisplay:10.37,2014-09-22 09:55:00,
2014-09-22 03:00:00,64.8,58.5,29.98,West,281,3.5,3.5,80,0.00,OVC,,0.00,0.0,WeatherDisplay:10.37,2014-09-22 10:00:00,
2014-09-22 03:05:00,64.8,58.5,29.98,West,281,3.5,3.5,80,0.00,OVC,,0.00,0.0,WeatherDisplay:10.37,2014-09-22 10:05:00,
2014-09-22 03:10:00,64.8,58.5,29.98,West,281,4.6,4.6,80,0.00,OVC,,0.00,0.0,WeatherDisplay:10.37,2014-09-22 10:10:00,
2014-09-22 03:15:00,64.7,58.4,29.98,West,281,0.0,0.0,80,0.00,OVC,,0.00,0.0,WeatherDisplay:10.37,2014-09-22 10:15:00,
2014-09-22 03:20:00,64.7,58.4,29.98,West,281,1.2,0.0,80,0.00,OVC,,0.00,0.0,WeatherDisplay:10.37,2014-09-22 10:20:00,
2014-09-22 03:25:00,64.7,58.4,29.98,West,281,1.2,0.0,80,0.00,OVC,,0.00,0.0,WeatherDisplay:10.37,2014-09-22 10:25:00,
2014-09-22 03:30:00,64.7,58.4,29.98,West,281,4.6,4.6,80,0.00,OVC,,0.00,0.0,WeatherDisplay:10.37,2014-09-22 10:30:00,
2014-09-22 03:35:00,64.7,58.4,29.98,West,281,3.0,3.0,80,0.00,OVC,,0.00,0.0,WeatherDisplay:10.37,2014-09-22 10:35:00,
2014-09-22 03:40:00,64.8,58.5,29.98,West,281,2.3,0.0,80,0.00,OVC,,0.00,0.0,WeatherDisplay:10.37,2014-09-22 10:40:00,
2014-09-22 03:45:00,64.8,58.5,29.98,West,281,3.5,3.5,80,0.00,OVC,,0.00,0.0,WeatherDisplay:10.37,2014-09-22 10:45:00,
2014-09-22 03:50:00,64.8,58.5,29.98,West,281,3.0,3.0,80,0.00,OVC,,0.00,0.0,WeatherDisplay:10.37,2014-09-22 10:50:00,
2014-09-22 03:55:00,65.0,58.7,29.98,West,281,2.3,0.0,80,0.00,OVC,,0.00,0.0,WeatherDisplay:10.37,2014-09-22 10:55:00,
2014-09-22 04:00:00,65.0,58.7,29.98,West,281,6.9,6.9,80,0.00,OVC,,0.00,0.0,WeatherDisplay:10.37,2014-09-22 11:00:00,
2014-09-22 04:05:00,65.0,59.0,29.98,West,280,5.8,5.8,81,0.00,OVC,,0.00,0.0,WeatherDisplay:10.37,2014-09-22 11:05:00,
2014-09-22 04:10:00,65.0,59.0,29.98,WSW,251,5.8,5.8,81,0.00,OVC,,0.00,0.0,WeatherDisplay:10.37,2014-09-22 11:10:00,
2014-09-22 04:15:00,65.0,59.0,29.98,WNW,290,6.9,6.9,81,0.00,OVC,,0.00,0.0,WeatherDisplay:10.37,2014-09-22 11:15:00,
2014-09-22 04:20:00,64.8,58.8,29.98,West,278,9.2,9.2,81,0.00,OVC,,0.00,0.0,WeatherDisplay:10.37,2014-09-22 11:20:00,
2014-09-22 04:25:00,64.7,58.7,29.98,WNW,285,9.2,9.2,81,0.00,OVC,,0.00,0.0,WeatherDisplay:10.37,2014-09-22 11:25:00,
2014-09-22 04:30:00,64.7,58.7,29.99,West,276,6.9,6.9,81,0.00,OVC,,0.00,0.0,WeatherDisplay:10.37,2014-09-22 11:30:00,
2014-09-22 04:35:00,64.5,58.5,29.99,WNW,287,3.5,3.5,81,0.00,OVC,,0.00,0.0,WeatherDisplay:10.37,2014-09-22 11:35:00,
2014-09-22 04:40:00,64.7,58.7,29.99,WNW,287,5.8,5.8,81,0.00,OVC,,0.00,0.0,WeatherDisplay:10.37,2014-09-22 11:40:00,
2014-09-22 04:45:00,64.7,58.7,29.99,WNW,287,3.5,3.5,81,0.00,OVC,,0.00,0.0,WeatherDisplay:10.37,2014-09-22 11:45:00,
2014-09-22 04:50:00,64.7,58.7,29.99,WNW,287,4.6,4.6,81,0.00,OVC,,0.00,0.0,WeatherDisplay:10.37,2014-09-22 11:50:00,
2014-09-22 04:55:00,64.5,58.5,29.99,WNW,287,3.5,3.5,81,0.00,OVC,,0.00,0.0,WeatherDisplay:10.37,2014-09-22 11:55:00,
2014-09-22 05:00:00,64.3,58.0,29.99,WNW,287,5.8,5.8,80,0.00,OVC,,0.00,0.0,WeatherDisplay:10.37,2014-09-22 12:00:00,
2014-09-22 05:05:00,64.3,58.0,29.99,WNW,287,3.5,3.5,80,0.00,OVC,,0.00,0.0,WeatherDisplay:10.37,2014-09-22 12:05:00,
2014-09-22 05:10:00,64.3,58.0,29.99,WNW,287,4.6,4.6,80,0.00,OVC,,0.00,0.0,WeatherDisplay:10.37,2014-09-22 12:10:00,
2014-09-22 05:15:00,64.3,58.0,29.98,WNW,288,4.0,4.0,80,0.00,OVC,,0.00,0.0,WeatherDisplay:10.37,2014-09-22 12:15:00,
2014-09-22 05:20:00,64.3,57.6,29.98,WNW,288,4.0,4.0,79,0.00,OVC,,0.00,0.0,WeatherDisplay:10.37,2014-09-22 12:20:00,
2014-09-22 05:25:00,64.5,57.8,29.98,WNW,288,5.0,5.0,79,0.00,OVC,,0.00,0.0,WeatherDisplay:10.37,2014-09-22 12:25:00,
2014-09-22 05:30:00,64.5,57.8,29.98,WNW,288,0.0,0.2,79,0.00,OVC,,0.00,0.0,WeatherDisplay:10.37,2014-09-22 12:30:00,
2014-09-22 05:35:00,64.5,58.2,29.98,WNW,289,5.8,5.8,80,0.00,OVC,,0.00,0.0,WeatherDisplay:10.37,2014-09-22 12:35:00,
2014-09-22 05:40:00,64.5,58.2,29.98,WNW,289,6.9,6.9,80,0.00,OVC,,0.00,0.0,WeatherDisplay:10.37,2014-09-22 12:40:00,
2014-09-22 05:45:00,64.7,58.4,29.99,WNW,289,2.0,2.5,80,0.00,OVC,,0.00,0.0,WeatherDisplay:10.37,2014-09-22 12:45:00,
2014-09-22 05:50:00,64.7,58.4,29.99,WNW,288,4.6,4.6,80,0.00,OVC,,0.00,0.0,WeatherDisplay:10.37,2014-09-22 12:50:00,
2014-09-22 05:55:00,64.7,58.4,29.99,WNW,288,3.5,3.6,80,0.00,OVC,,0.00,0.0,WeatherDisplay:10.37,2014-09-22 12:55:00,
2014-09-22 06:00:00,64.7,58.4,29.99,WNW,288,5.8,5.8,80,0.00,OVC,,0.00,0.0,WeatherDisplay:10.37,2014-09-22 13:00:00,
2014-09-22 06:05:00,64.7,58.4,29.99,WNW,289,0.0,0.0,80,0.00,OVC,,0.00,0.0,WeatherDisplay:10.37,2014-09-22 13:05:00,
2014-09-22 06:10:00,64.5,58.2,29.99,WNW,288,0.0,0.0,80,0.00,OVC,,0.00,0.0,WeatherDisplay:10.37,2014-09-22 13:10:00,
2014-09-22 06:15:00,64.5,58.2,29.98,WNW,289,6.0,6.0,80,0.00,OVC,,0.00,0.0,WeatherDisplay:10.37,2014-09-22 13:15:00,
2014-09-22 06:20:00,64.5,58.2,29.98,WNW,291,3.5,0.0,80,0.00,OVC,,0.00,0.0,WeatherDisplay:10.37,2014-09-22 13:20:00,
2014-09-22 06:25:00,64.5,58.2,29.98,WNW,291,0.0,0.0,80,0.00,OVC,,0.00,0.0,WeatherDisplay:10.37,2014-09-22 13:25:00,
2014-09-22 06:30:00,64.5,58.2,29.99,WNW,291,3.5,3.5,80,0.00,OVC,,0.00,0.0,WeatherDisplay:10.37,2014-09-22 13:30:00,
2014-09-22 06:35:00,64.5,58.2,29.99,WNW,291,0.0,0.1,80,0.00,OVC,,0.00,0.0,WeatherDisplay:10.37,2014-09-22 13:35:00,
2014-09-22 06:40:00,64.3,58.0,29.99,WNW,291,4.6,4.6,80,0.00,OVC,,0.00,0.0,WeatherDisplay:10.37,2014-09-22 13:40:00,
2014-09-22 06:45:00,64.5,58.2,29.99,WNW,291,3.5,3.5,80,0.00,OVC,,0.00,0.0,WeatherDisplay:10.37,2014-09-22 13:45:00,
2014-09-22 06:50:00,64.5,58.2,29.99,WNW,291,2.3,0.0,80,0.00,OVC,,0.00,0.0,WeatherDisplay:10.37,2014-09-22 13:50:00,
2014-09-22 06:56:00,64.5,58.2,29.99,WNW,291,0.0,1.1,80,0.00,OVC,,0.00,0.0,WeatherDisplay:10.37,2014-09-22 13:56:00,
2014-09-22 07:01:00,64.5,58.2,29.99,WNW,291,5.0,5.0,80,0.00,OVC,,0.00,0.0,WeatherDisplay:10.37,2014-09-22 14:01:00,
2014-09-22 07:06:00,64.5,58.2,29.99,WNW,291,2.0,2.0,80,0.00,OVC,,0.00,0.0,WeatherDisplay:10.37,2014-09-22 14:06:00,
2014-09-22 07:11:00,64.3,58.0,29.99,WNW,291,3.5,3.5,80,0.00,OVC,,0.00,5.0,WeatherDisplay:10.37,2014-09-22 14:11:00,
2014-09-22 07:16:00,64.3,57.6,29.99,WNW,291,0.0,0.0,79,0.00,OVC,,0.00,7.0,WeatherDisplay:10.37,2014-09-22 14:16:00,